Wind_Speed
4 4 4 4 5 5 5 6 6 6 5 5 5 5 4 4 4 4 4 4 3 3 2 2 2 1 1 1 1 1 1 2 2 3 3 3 4 4 4 4 4 4 4 3 3 2 2 2 2
5 5 5 5 5 5 6 7 7 7 7 7 6 5 5 4 4 4 4 4 4 4 3 3 2 2 2 2 1 1 2 2 2 2 2 2 3 3 3 4 4 4 4 3 3 2 1 1 2
6 6 6 6 6 6 7 8 8 8 9 8 7 7 6 6 5 5 5 5 5 4 4 3 3 2 1 2 2 2 1 2 2 2 1 1 2 2 3 3 3 3 4 4 3 2 2 2 2
7 7 8 7 8 8 8 9 9 9 10 10 9 9 8 7 7 6 6 6 5 5 4 4 3 3 2 1 2 2 2 2 2 1 1 0 1 2 2 3 3 3 3 3 3 3 3 3 3
8 8 8 9 9 9 9 9 9 9 10 10 10 10 10 9 8 7 7 6 6 6 5 5 4 4 3 2 2 3 3 2 2 1 1 0 1 2 2 2 3 3 3 3 3 3 4 4 4
9 9 9 10 10 10 10 10 11 11 11 11 11 11 11 10 9 8 8 7 6 6 6 5 5 4 4 4 4 3 3 3 2 2 2 1 1 1 2 2 3 3 3 4 4 4 4 5 5
10 10 10 11 11 11 11 11 12 12 12 13 13 12 12 11 10 9 9 8 7 7 6 6 5 5 5 5 4 4 4 3 3 3 3 2 2 2 3 3 3 3 3 4 4 4 5 6 6
10 10 11 11 11 12 12 12 13 13 12 12 13 13 12 12 11 10 10 9 8 8 7 6 6 6 5 5 5 4 4 5 4 3 3 3 2 3 3 3 3 4 4 5 5 5 6 6 7
10 10 11 11 12 12 12 13 13 14 13 13 12 13 13 13 12 11 11 10 9 9 8 8 8 7 7 6 6 5 6 5 5 4 4 4 4 4 4 4 4 5 5 6 6 6 7 7 7
10 11 11 11 12 12 12 13 13 14 13 13 13 13 13 14 13 12 12 11 11 10 10 10 9 8 7 7 7 6 7 6 4 4 5 5 5 5 5 5 5 5 6 7 7 7 7 8 8
10 11 11 12 13 13 13 13 14 14 13 13 13 14 14 14 14 14 13 12 12 12 12 11 10 9 8 7 7 7 7 7 6 5 5 6 6 6 5 5 5 6 6 7 7 7 7 8 8
11 11 12 13 13 13 13 13 13 14 13 13 13 14 15 15 14 14 14 13 13 13 12 12 11 10 10 9 9 9 8 8 7 7 7 7 7 6 5 6 5 5 6 7 8 7 8 8 8
12 12 12 13 13 13 14 14 13 13 13 13 13 14 14 16 16 15 15 14 13 13 13 13 12 11 10 10 10 9 9 8 7 7 7 7 7 7 6 6 6 6 7 7 8 8 9 8 8
12 12 12 12 13 13 14 14 14 14 14 14 14 15 15 15 15 15 15 14 14 14 14 13 13 12 12 11 11 10 10 9 8 8 8 8 8 7 7 7 7 7 7 8 9 9 9 9 9
12 12 12 12 13 13 14 14 14 14 14 14 15 14 15 15 15 15 15 15 15 15 15 14 13 12 12 11 10 10 11 11 10 10 9 9 8 8 8 7 7 8 8 9 9 9 8 9 9
12 12 13 13 12 13 14 14 15 15 15 16 16 15 15 15 16 16 16 16 16 15 15 15 14 12 12 11 11 11 11 11 11 10 9 9 8 8 8 7 7 8 9 9 9 9 9 9 10
12 12 13 13 13 13 14 14 15 15 15 16 16 15 15 15 16 16 17 17 16 16 15 15 14 13 12 12 11 11 11 10 10 10 9 9 8 8 8 8 9 9 9 9 8 9 9 10 10
12 13 14 14 13 14 15 14 15 15 15 16 16 16 16 16 15 15 16 16 16 15 14 14 14 13 13 12 12 11 11 10 9 8 8 8 8 8 9 9 9 9 9 9 9 9 9 10 10
11 12 13 14 14 14 15 15 15 16 16 16 16 16 16 15 15 15 15 15 15 15 14 13 14 13 12 12 12 11 11 11 10 9 9 9 9 8 8 9 9 9 9 9 9 9 9 9 10
12 12 13 13 13 13 14 15 15 15 15 15 16 16 15 15 15 14 14 15 15 15 14 14 14 14 13 13 12 11 11 10 11 11 10 9 9 9 8 9 9 9 9 9 9 9 9 9 10
12 13 13 12 12 13 14 15 14 14 14 15 15 15 15 15 14 14 13 14 14 15 15 14 14 14 14 13 12 12 12 11 11 11 11 10 10 10 10 9 9 9 9 9 9 9 9 9 10
13 13 13 13 13 13 14 14 15 14 15 15 15 15 15 15 15 14 14 13 13 13 14 14 14 15 15 14 14 13 13 13 13 12 12 12 12 11 11 10 10 10 9 9 9 9 9 9 10
13 13 13 13 13 13 14 15 14 15 15 14 14 14 14 15 15 15 14 14 14 14 14 14 14 14 14 14 14 14 14 13 13 12 12 12 12 11 12 11 11 11 10 10 10 10 10 10 10
13 12 13 13 14 14 14 15 15 14 15 14 14 14 15 15 16 15 14 14 14 15 14 14 14 14 14 14 14 14 14 14 13 13 12 12 12 12 12 11 11 11 11 10 10 9 10 10 10
13 12 12 12 13 15 14 16 15 15 15 15 14 14 15 16 16 16 15 15 14 15 14 14 15 15 14 14 14 14 13 13 13 13 12 12 11 11 12 11 11 11 11 10 9 10 10 10 10
14 13 13 13 13 14 15 16 15 15 15 16 15 15 15 16 17 17 16 16 16 15 15 15 15 15 14 14 15 14 13 13 13 13 12 13 12 12 11 11 11 11 11 11 10 10 10 10 10
14 14 14 14 14 14 16 16 16 16 16 16 15 15 16 15 16 16 16 17 16 15 15 15 15 15 14 14 14 14 13 13 13 12 12 12 12 12 12 12 11 11 11 11 10 11 11 11 11
15 14 14 15 14 15 16 17 17 17 16 16 16 14 15 15 16 16 16 16 16 16 15 15 15 14 14 14 14 14 14 14 13 13 12 11 11 12 12 13 12 12 12 11 10 10 10 11 11
15 15 15 15 15 16 17 18 17 17 17 17 16 15 15 15 15 16 17 16 16 16 15 15 15 15 14 14 14 14 14 14 13 13 12 12 12 12 12 11 11 11 11 10 10 10 10 11 11
16 16 16 16 16 15 17 17 16 17 17 17 16 16 16 16 16 16 16 16 16 16 15 15 15 15 14 14 14 14 14 14 13 13 13 13 12 12 12 11 10 9 9 9 9 10 10 10 10
Wind_Direction
215 213 211 207 213 219 226 229 225 224 217 213 211 207 211 215 210 214 218 211 210 219 217 229 237 239 210 196 190 187 128 113 111 115 105 93 86 88 82 67 60 64 63 56 51 54 59 50 29
219 221 223 222 226 222 224 230 229 227 223 223 223 221 219 225 224 228 229 222 217 218 227 236 245 241 231 208 191 192 155 140 128 120 108 80 74 78 68 54 48 53 47 43 37 46 46 4 334
227 227 232 233 236 232 231 231 232 231 230 228 229 230 230 233 229 235 234 236 232 226 228 229 247 232 229 216 204 194 171 152 152 141 117 62 59 60 54 43 37 38 35 31 22 16 358 334 316
234 234 236 237 238 238 236 232 236 236 234 233 233 234 236 237 233 235 238 239 236 231 227 234 246 233 237 232 221 216 203 180 187 183 154 34 46 44 42 31 25 21 23 22 15 14 357 337 326
237 237 239 240 242 242 241 240 240 239 235 237 237 237 240 239 237 237 237 237 240 237 238 245 251 247 235 241 242 228 221 217 204 204 208 312 354 15 17 13 3 359 0 359 356 354 348 334 319
238 239 242 245 247 247 245 245 248 247 241 239 237 241 242 237 238 239 239 238 247 245 244 248 255 249 241 243 245 245 234 225 223 212 224 255 296 334 333 333 334 339 340 340 340 342 338 330 320
237 240 242 244 246 247 247 246 248 249 246 245 243 243 243 239 239 240 240 242 249 250 244 252 262 259 251 246 245 243 240 234 240 236 235 251 275 300 312 324 332 333 330 329 332 331 332 329 323
239 240 242 244 247 249 250 250 250 250 250 250 247 243 239 239 238 237 239 244 246 247 243 248 256 260 257 248 244 243 246 244 243 242 244 256 270 290 303 315 330 330 326 323 321 323 325 325 322
240 241 244 245 247 250 251 250 249 251 252 251 250 241 235 237 238 239 241 244 246 248 246 247 253 254 256 253 251 248 250 258 247 249 250 258 273 286 294 305 318 323 327 327 323 321 321 322 321
242 247 246 245 247 250 251 251 250 249 250 249 246 240 237 239 239 241 242 245 247 250 248 246 254 257 256 255 256 252 257 258 253 256 252 254 266 276 285 297 308 317 325 328 323 318 320 320 319
249 251 252 249 250 251 252 253 252 250 248 248 245 242 237 238 240 242 242 245 244 249 248 248 253 253 254 258 261 257 257 257 260 269 262 257 264 271 280 296 309 316 321 323 323 323 320 319 319
253 253 253 252 251 252 253 254 252 249 248 248 245 244 243 240 243 244 246 248 248 249 249 250 252 254 258 259 260 258 258 259 264 269 271 268 263 266 280 292 302 307 311 318 322 323 319 315 315
254 255 254 254 253 253 253 251 251 249 247 247 245 245 243 242 245 248 246 249 248 248 250 252 249 250 254 258 259 255 258 261 268 273 271 272 268 266 280 282 291 298 304 310 315 317 317 316 314
255 255 254 254 255 253 249 249 252 250 248 246 247 249 248 247 247 251 250 253 252 252 251 251 251 250 252 258 259 258 259 259 266 270 270 273 273 273 278 282 284 292 301 305 312 315 317 316 315
252 252 252 253 254 255 250 249 250 249 247 245 247 249 252 249 247 250 250 252 254 252 251 252 253 253 253 256 260 261 259 260 266 269 268 270 272 273 275 281 284 292 300 303 306 308 311 309 313
252 251 252 253 253 254 252 252 251 250 249 251 252 254 256 253 252 250 250 252 254 253 252 253 254 251 251 255 259 264 261 260 264 266 265 265 266 270 272 281 288 294 297 299 299 301 304 306 310
257 257 257 256 254 254 253 252 252 253 254 256 255 257 256 256 255 253 252 252 254 254 251 253 255 253 249 253 259 261 258 256 259 262 265 268 269 272 276 283 292 293 292 294 295 297 301 303 307
265 262 261 259 256 254 255 255 254 255 256 257 256 257 258 258 256 256 254 254 254 252 249 251 254 253 251 253 256 254 252 253 257 258 264 269 271 274 276 280 288 293 291 290 294 297 299 302 306
265 264 264 263 261 258 257 255 257 261 259 259 260 258 260 255 255 256 255 254 254 250 247 248 251 252 250 252 250 250 251 252 255 259 263 265 268 273 276 279 286 290 291 291 294 294 297 302 305
258 260 264 264 263 261 259 258 261 262 263 263 262 261 258 254 253 254 255 255 255 255 252 249 250 251 250 249 248 249 251 256 257 259 259 259 263 269 274 280 283 283 287 292 293 292 296 301 305
258 258 261 264 263 263 264 264 264 265 264 264 263 261 257 255 257 258 258 257 256 257 256 253 250 248 249 249 250 252 253 254 256 257 259 258 260 266 271 278 278 278 285 289 289 291 294 299 304
256 257 259 261 262 264 266 267 269 269 269 266 264 261 258 257 256 256 256 256 256 258 261 261 257 251 253 250 252 253 253 255 255 255 256 258 262 265 269 271 271 275 280 284 288 289 293 299 304
256 258 257 258 259 261 265 268 267 269 271 268 266 263 258 256 257 258 253 255 255 258 261 260 258 256 253 253 253 253 253 253 255 255 258 262 263 263 266 267 267 270 274 279 283 287 289 295 299
254 255 257 258 258 259 262 265 265 267 276 274 270 267 262 258 257 258 256 255 256 258 258 255 257 258 256 256 253 253 253 253 254 256 261 264 263 262 263 263 267 267 270 276 280 284 288 292 297
250 253 256 259 260 262 261 262 265 267 273 275 273 269 265 262 257 256 255 254 255 256 254 253 255 257 256 256 255 252 255 256 256 259 260 262 261 260 263 263 265 267 268 272 276 283 287 293 300
251 253 254 255 256 260 259 264 268 269 271 274 273 270 265 261 259 257 256 255 255 255 252 252 254 255 253 255 257 254 256 256 256 255 259 261 261 260 261 261 262 265 267 269 270 280 284 289 297
251 249 251 254 256 259 261 265 269 270 271 274 272 269 266 262 260 258 255 254 253 252 251 250 250 253 255 254 253 252 257 259 257 255 257 259 261 260 264 264 266 268 268 265 269 274 280 285 293
251 248 248 249 250 254 260 263 268 273 276 273 273 270 265 262 260 258 257 254 253 249 249 247 249 254 256 255 255 252 254 256 257 258 258 259 263 261 265 269 265 266 264 264 270 276 282 286 290
254 250 251 253 252 253 259 263 267 274 277 274 271 269 263 263 263 260 256 253 250 248 248 247 249 251 252 255 252 251 249 253 259 256 254 257 260 261 265 267 263 263 261 265 270 276 283 286 290
251 249 250 254 254 254 262 266 270 273 275 273 269 266 264 264 262 259 256 251 249 248 249 250 249 250 252 253 252 251 250 253 255 253 252 256 261 263 265 263 262 263 264 267 271 279 284 289 291
Height
5876 5877 5878 5880 5881 5882 5882 5882 5883 5884 5885 5886 5886 5887 5888 5889 5891 5894 5892 5891 5892 5892 5892 5892 5892 5892 5892 5892 5892 5892 5892 5892 5892 5893 5893 5893 5893 5893 5893 5893 5893 5893 5892 5892 5892 5892 5892 5892 5892
5875 5876 5878 5879 5880 5880 5881 5882 5883 5884 5885 5885 5886 5887 5888 5889 5890 5891 5891 5891 5892 5892 5892 5892 5893 5892 5892 5892 5892 5892 5892 5893 5893 5893 5893 5893 5893 5894 5894 5894 5893 5893 5893 5893 5893 5892 5892 5892 5892
5874 5876 5877 5878 5879 5879 5880 5881 5882 5883 5884 5885 5886 5887 5888 5889 5890 5890 5891 5891 5891 5892 5892 5892 5893 5893 5893 5893 5893 5893 5893 5893 5893 5894 5894 5894 5894 5894 5894 5894 5894 5893 5893 5893 5893 5892 5892 5892 5892
5873 5875 5877 5878 5878 5878 5879 5880 5881 5882 5883 5884 5885 5886 5887 5888 5889 5890 5890 5891 5891 5891 5892 5892 5892 5893 5893 5893 5893 5894 5893 5893 5894 5894 5894 5894 5894 5894 5894 5894 5894 5894 5893 5893 5893 5892 5892 5891 5891
5872 5874 5875 5875 5876 5877 5878 5879 5880 5881 5882 5883 5885 5886 5886 5888 5888 5889 5890 5891 5891 5891 5891 5892 5892 5892 5893 5893 5893 5894 5894 5894 5894 5894 5894 5894 5894 5895 5895 5894 5894 5894 5893 5893 5893 5892 5891 5891 5891
5871 5872 5874 5874 5875 5876 5877 5878 5879 5880 5881 5882 5884 5885 5885 5887 5887 5888 5889 5890 5890 5891 5891 5891 5891 5892 5892 5893 5893 5893 5894 5894 5894 5894 5894 5894 5894 5895 5895 5894 5894 5894 5893 5893 5892 5892 5891 5891 5890
5870 5871 5871 5872 5873 5874 5875 5876 5877 5878 5880 5881 5882 5883 5884 5885 5887 5887 5888 5889 5890 5890 5891 5891 5891 5891 5892 5892 5892 5893 5893 5893 5893 5894 5894 5894 5894 5894 5894 5894 5894 5893 5893 5893 5892 5891 5891 5890 5890
5868 5870 5870 5870 5871 5872 5873 5874 5875 5877 5878 5879 5880 5882 5883 5884 5885 5886 5887 5888 5889 5889 5890 5890 5890 5891 5891 5891 5892 5892 5892 5893 5893 5893 5894 5894 5894 5894 5894 5894 5893 5893 5892 5892 5891 5891 5890 5890 5889
5866 5869 5868 5868 5869 5870 5871 5872 5874 5875 5876 5877 5878 5880 5881 5882 5884 5885 5886 5887 5888 5888 5889 5890 5890 5890 5890 5890 5891 5891 5892 5892 5892 5893 5893 5894 5894 5894 5893 5893 5893 5892 5892 5891 5891 5890 5889 5889 5888
5865 5865 5866 5867 5868 5868 5869 5870 5872 5873 5874 5875 5876 5878 5879 5880 5882 5883 5884 5885 5886 5887 5888 5888 5889 5889 5889 5889 5890 5891 5891 5891 5891 5892 5892 5893 5893 5893 5893 5893 5892 5892 5891 5891 5890 5889 5888 5888 5887
5863 5864 5864 5865 5865 5866 5867 5868 5869 5871 5872 5873 5874 5876 5877 5878 5880 5881 5882 5883 5884 5885 5886 5886 5887 5888 5888 5888 5889 5889 5890 5890 5890 5891 5891 5892 5892 5892 5892 5892 5891 5891 5890 5890 5889 5888 5888 5887 5886
5861 5862 5862 5863 5863 5864 5865 5866 5867 5868 5870 5871 5872 5873 5875 5876 5877 5879 5880 5881 5882 5883 5884 5885 5886 5886 5887 5887 5887 5888 5888 5889 5889 5890 5890 5890 5890 5890 5890 5890 5890 5890 5889 5889 5888 5887 5887 5886 5885
5859 5860 5860 5860 5861 5862 5863 5864 5865 5866 5867 5868 5870 5871 5872 5874 5875 5877 5878 5879 5880 5881 5882 5883 5883 5884 5885 5885 5886 5886 5887 5887 5888 5888 5889 5889 5889 5889 5889 5889 5889 5889 5888 5888 5887 5886 5885 5884 5884
5856 5857 5858 5858 5859 5860 5861 5862 5863 5864 5865 5866 5867 5869 5869 5871 5872 5874 5875 5877 5878 5879 5880 5880 5881 5882 5883 5883 5884 5884 5885 5886 5886 5887 5887 5887 5887 5888 5888 5888 5888 5887 5887 5886 5886 5885 5884 5883 5882
5854 5855 5856 5856 5857 5858 5859 5860 5861 5861 5862 5864 5865 5866 5867 5868 5870 5871 5872 5874 5875 5876 5877 5878 5879 5880 5880 5881 5882 5883 5883 5884 5885 5885 5886 5886 5886 5886 5886 5886 5886 5886 5885 5885 5884 5883 5883 5882 5881
5852 5853 5853 5854 5854 5855 5858 5858 5858 5859 5860 5861 5862 5864 5865 5866 5867 5868 5870 5871 5872 5873 5875 5876 5877 5877 5878 5879 5880 5881 5882 5882 5883 5883 5884 5884 5884 5884 5885 5885 5884 5884 5884 5883 5882 5882 5881 5880 5879
5849 5850 5851 5852 5852 5853 5854 5855 5856 5856 5858 5859 5860 5861 5862 5863 5864 5865 5867 5868 5869 5870 5872 5873 5874 5875 5876 5877 5878 5879 5879 5880 5881 5882 5882 5882 5882 5883 5883 5883 5883 5882 5882 5881 5881 5880 5880 5879 5878
5848 5848 5848 5849 5850 5850 5851 5852 5853 5854 5855 5856 5857 5858 5859 5860 5861 5862 5864 5865 5866 5867 5869 5870 5871 5873 5874 5875 5875 5876 5877 5878 5879 5879 5880 5880 5881 5881 5881 5881 5881 5881 5880 5880 5879 5879 5878 5878 5877
5845 5846 5846 5847 5847 5848 5848 5849 5851 5851 5852 5854 5854 5855 5856 5857 5858 5860 5861 5862 5863 5864 5866 5867 5869 5870 5871 5872 5873 5874 5875 5876 5877 5877 5878 5878 5879 5879 5879 5879 5879 5879 5879 5878 5878 5877 5877 5876 5875
5842 5843 5844 5845 5845 5845 5846 5847 5848 5848 5849 5850 5851 5852 5853 5854 5855 5857 5858 5859 5860 5862 5863 5864 5866 5867 5868 5870 5871 5872 5873 5874 5874 5875 5875 5876 5876 5877 5877 5877 5877 5877 5877 5877 5876 5876 5875 5874 5874
5840 5841 5841 5842 5842 5843 5843 5844 5845 5846 5847 5847 5848 5849 5850 5851 5852 5854 5855 5856 5857 5858 5860 5861 5863 5864 5866 5867 5868 5869 5870 5871 5872 5873 5873 5874 5874 5874 5875 5875 5875 5876 5875 5875 5875 5874 5873 5873 5872
5837 5838 5839 5839 5840 5840 5841 5842 5842 5843 5844 5844 5845 5846 5847 5848 5849 5851 5852 5853 5854 5856 5857 5858 5860 5861 5862 5864 5865 5866 5867 5868 5869 5870 5870 5871 5871 5872 5872 5873 5873 5873 5873 5873 5873 5872 5872 5871 5870
5834 5835 5836 5836 5837 5838 5838 5839 5840 5840 5841 5842 5842 5843 5844 5845 5846 5848 5849 5851 5852 5853 5854 5855 5857 5858 5859 5861 5862 5863 5864 5865 5866 5867 5868 5868 5869 5869 5870 5870 5870 5871 5871 5870 5870 5870 5869 5869 5868
5831 5832 5833 5833 5834 5835 5836 5837 5837 5838 5838 5839 5839 5840 5841 5842 5843 5845 5846 5847 5849 5850 5851 5852 5854 5855 5856 5858 5859 5860 5861 5862 5863 5864 5865 5866 5866 5866 5867 5867 5868 5868 5868 5868 5868 5868 5867 5867 5866
5828 5830 5830 5830 5831 5832 5834 5834 5835 5836 5836 5836 5837 5837 5838 5839 5840 5842 5843 5844 5846 5847 5848 5849 5851 5852 5853 5854 5856 5857 5857 5858 5860 5861 5862 5862 5863 5863 5864 5864 5865 5865 5865 5865 5866 5865 5865 5864 5864
5825 5826 5828 5829 5829 5830 5830 5830 5833 5833 5833 5833 5834 5834 5835 5836 5837 5838 5840 5841 5842 5844 5845 5846 5847 5849 5850 5851 5852 5853 5854 5855 5856 5858 5858 5859 5860 5860 5861 5861 5862 5862 5862 5863 5863 5863 5862 5862 5862
5821 5823 5825 5826 5826 5827 5827 5828 5829 5829 5830 5831 5831 5831 5832 5833 5834 5835 5836 5837 5839 5840 5841 5843 5844 5845 5846 5848 5849 5850 5851 5852 5853 5854 5855 5856 5856 5857 5858 5858 5858 5859 5859 5860 5860 5860 5860 5860 5859
5819 5820 5821 5822 5823 5824 5825 5825 5826 5826 5827 5827 5827 5827 5828 5829 5830 5831 5832 5834 5835 5837 5838 5839 5840 5842 5843 5844 5845 5846 5848 5849 5850 5850 5851 5852 5853 5854 5854 5855 5855 5856 5856 5857 5857 5858 5857 5857 5857
5816 5817 5817 5819 5820 5821 5821 5823 5822 5823 5823 5824 5824 5825 5825 5826 5827 5828 5829 5830 5831 5833 5834 5836 5837 5838 5840 5840 5842 5843 5844 5845 5846 5847 5848 5849 5850 5851 5851 5852 5852 5853 5853 5854 5855 5855 5855 5854 5854
5811 5812 5814 5815 5816 5817 5817 5821 5819 5819 5819 5820 5820 5821 5821 5822 5823 5824 5825 5826 5827 5829 5830 5832 5833 5835 5836 5837 5838 5840 5841 5842 5843 5844 5845 5846 5847 5848 5848 5849 5849 5850 5851 5851 5852 5852 5852 5852 5851